Menomonie, WI

12:35 PM CST on December 14, 2019 (GMT -0600)
Menomonie

Weather History for KLUM - October, 2019

Change the Weather History Date:

Tuesday, October 8, 2019

  Actual Average (KEAU) Record (KEAU)
Temperature  
Mean Temperature 52 °F -  
Max Temperature 67 °F 60 °F 84 °F (2011)
Min Temperature 39 °F 39 °F 23 °F (1987)
Degree Days  
Heating Degree Days 13    
Growing Degree Days 2 (Base 50)    
Moisture  
Dew Point 38 °F    
Average Humidity 67    
Maximum Humidity 94    
Minimum Humidity 32    
Precipitation  
Precipitation 0.00 in - - ()
Sea Level Pressure  
Sea Level Pressure 30.04 in    
Wind  
Wind Speed 7 mph (ESE)    
Max Wind Speed 21 mph    
Max Gust Speed 31 mph    
Visibility 10 miles    
Events      
Averages and records for this station are not official NWS values.
T = Trace of Precipitation, MM = Missing Value Source: NWS Daily Summary

Daily Weather History Graph

Daily Weather History Graph

Search for Another Location

Airport or City:

Astronomy

Oct. 08, 2019 Rise Set
Actual Time 7:13 AM CDT 6:35 PM CDT
Civil Twilight 6:44 AM CDT 7:04 PM CDT
Nautical Twilight 6:10 AM CDT 7:38 PM CDT
Astronomical Twilight 5:36 AM CDT 8:12 PM CDT
Moon 4:50 PM CDT (10/8) 1:46 AM CDT (10/8)
Length of Visible Light 12h 20m
Length of Day
11h 21m
Waxing Gibbous, 78% of the Moon is Illuminated
Oct 8
Waxing Gibbous
Oct 13
Full
Oct 21
Last Quarter
Oct 27
New
Nov 4
First Quarter

Hourly Weather History & Observations

Time (CDT) Temp. Windchill Dew Point Humidity Pressure Visibility Wind Dir Wind Speed Gust Speed Precip Events Conditions
12:15 AM 40.1 °F 38.0 °F 38.3 °F 93% 30.11 in 10.0 mi East 3.5 mph - N/A   Clear
12:35 AM 40.1 °F 38.0 °F 38.1 °F 93% 30.11 in 10.0 mi East 3.5 mph - N/A   Clear
12:55 AM 40.3 °F 37.1 °F 38.3 °F 93% 30.11 in 10.0 mi East 4.6 mph - N/A   Clear
1:15 AM 39.7 °F 37.6 °F 37.6 °F 92% 30.11 in 10.0 mi East 3.5 mph - N/A   Clear
1:35 AM 39.4 °F 36.1 °F 37.6 °F 93% 30.11 in 10.0 mi East 4.6 mph - N/A   Clear
1:55 AM 40.1 °F 36.9 °F 37.9 °F 92% 30.11 in 10.0 mi East 4.6 mph - N/A   Clear
2:15 AM 39.0 °F 34.8 °F 37.2 °F 93% 30.11 in 10.0 mi East 5.8 mph - N/A   Clear
2:35 AM 39.2 °F 35.9 °F 37.4 °F 93% 30.10 in 10.0 mi East 4.6 mph - N/A   Clear
2:55 AM 39.0 °F 34.8 °F 37.4 °F 94% 30.10 in 10.0 mi East 5.8 mph - N/A   Clear
3:15 AM 39.2 °F 37.0 °F 37.2 °F 93% 30.10 in 10.0 mi East 3.5 mph - N/A   Clear
3:35 AM 39.4 °F 37.2 °F 37.4 °F 93% 30.09 in 10.0 mi East 3.5 mph - N/A   Clear
3:55 AM 39.2 °F 35.9 °F 36.9 °F 91% 30.09 in 10.0 mi East 4.6 mph - N/A   Clear
4:15 AM 39.7 °F 35.6 °F 37.0 °F 90% 30.09 in 10.0 mi East 5.8 mph - N/A   Clear
4:35 AM 40.1 °F 36.1 °F 37.2 °F 89% 30.09 in 10.0 mi East 5.8 mph - N/A   Clear
4:55 AM 40.1 °F 36.1 °F 37.0 °F 89% 30.09 in 10.0 mi ESE 5.8 mph - N/A   Clear
5:15 AM 39.2 °F 35.0 °F 36.7 °F 91% 30.08 in 10.0 mi East 5.8 mph - N/A   Clear
5:35 AM 39.7 °F 35.6 °F 37.4 °F 91% 30.08 in 10.0 mi East 5.8 mph - N/A   Clear
5:55 AM 39.6 °F 35.4 °F 37.2 °F 91% 30.08 in 10.0 mi East 5.8 mph - N/A   Clear
6:15 AM 40.1 °F 36.9 °F 37.2 °F 89% 30.08 in 10.0 mi East 4.6 mph - N/A   Clear
6:35 AM 40.1 °F 36.1 °F 37.2 °F 89% 30.08 in 10.0 mi East 5.8 mph - N/A   Clear
6:55 AM 39.7 °F 36.5 °F 37.0 °F 90% 30.08 in 10.0 mi East 4.6 mph - N/A   Clear
7:15 AM 39.7 °F 35.6 °F 37.4 °F 91% 30.08 in 10.0 mi East 5.8 mph - N/A   Clear
7:35 AM 40.1 °F 36.9 °F 37.4 °F 90% 30.08 in 10.0 mi East 4.6 mph - N/A   Clear
7:55 AM 40.3 °F 36.3 °F 37.4 °F 89% 30.08 in 10.0 mi East 5.8 mph - N/A   Clear
8:15 AM 41.7 °F 38.8 °F 38.3 °F 88% 30.08 in 10.0 mi East 4.6 mph - N/A   Clear
8:35 AM 43.7 °F 41.1 °F 39.6 °F 85% 30.08 in 10.0 mi East 4.6 mph - N/A   Clear
8:55 AM 45.9 °F 43.6 °F 40.3 °F 81% 30.08 in 10.0 mi East 4.6 mph - N/A   Clear
9:15 AM 48.0 °F - 41.5 °F 78% 30.08 in 10.0 mi ENE 4.6 mph - N/A   Clear
9:35 AM 52.2 °F - 41.9 °F 68% 30.08 in 10.0 mi East 5.8 mph - N/A   Clear
9:55 AM 52.2 °F - 41.0 °F 66% 30.08 in 10.0 mi SSE 8.1 mph - N/A   Clear
10:15 AM 52.5 °F - 41.4 °F 66% 30.08 in 10.0 mi South 8.1 mph - N/A   Clear
10:35 AM 55.0 °F - 41.5 °F 60% 30.08 in 10.0 mi SSE 8.1 mph - N/A   Clear
10:55 AM 57.6 °F - 42.3 °F 57% 30.08 in 10.0 mi South 11.5 mph - N/A   Clear
11:15 AM 58.8 °F - 41.7 °F 53% 30.07 in 10.0 mi SSE 12.7 mph 18.4 mph N/A   Clear
11:35 AM 61.3 °F - 41.9 °F 49% 30.07 in 10.0 mi South 12.7 mph 17.3 mph N/A   Clear
11:55 AM 61.9 °F - 40.3 °F 45% 30.06 in 10.0 mi South 15.0 mph 21.9 mph N/A   Clear
12:15 PM 63.0 °F - 39.6 °F 42% 30.06 in 10.0 mi South 18.4 mph 23.0 mph N/A   Clear
12:35 PM 64.6 °F - 40.8 °F 42% 30.05 in 10.0 mi South 16.1 mph 23.0 mph N/A   Clear
12:55 PM 64.4 °F - 40.5 °F 41% 30.05 in 10.0 mi SSE 10.4 mph 20.7 mph N/A   Clear
1:15 PM 64.8 °F - 39.2 °F 39% 30.04 in 10.0 mi SSE 16.1 mph 25.3 mph N/A   Clear
1:35 PM 63.9 °F - 39.0 °F 40% 30.03 in 10.0 mi SSE 19.6 mph 25.3 mph N/A   Clear
1:55 PM 65.8 °F - 39.2 °F 38% 30.02 in 10.0 mi SSE 19.6 mph 24.2 mph N/A   Clear
2:15 PM 65.7 °F - 37.9 °F 36% 30.01 in 10.0 mi SSE 16.1 mph 23.0 mph N/A   Clear
2:35 PM 64.6 °F - 38.7 °F 38% 30.00 in 10.0 mi SSE 16.1 mph 26.5 mph N/A   Clear
2:55 PM 65.3 °F - 37.8 °F 36% 30.00 in 10.0 mi SSE 18.4 mph 28.8 mph N/A   Clear
3:15 PM 65.8 °F - 37.0 °F 35% 29.99 in 10.0 mi SSE 15.0 mph 20.7 mph N/A   Clear
3:35 PM 65.3 °F - 35.6 °F 33% 29.99 in 10.0 mi SSE 20.7 mph 31.1 mph N/A   Clear
3:55 PM 65.1 °F - 35.2 °F 33% 29.98 in 10.0 mi South 18.4 mph 28.8 mph N/A   Clear
4:15 PM 65.8 °F - 34.7 °F 32% 29.98 in 10.0 mi SSE 19.6 mph 25.3 mph N/A   Clear
4:35 PM 65.3 °F - 34.7 °F 32% 29.98 in 10.0 mi SSE 18.4 mph 26.5 mph N/A   Clear
4:55 PM 64.9 °F - 36.1 °F 34% 29.98 in 10.0 mi SSE 9.2 mph 20.7 mph N/A   Clear
5:35 PM 63.3 °F - 35.4 °F 35% 29.97 in 10.0 mi SSE 17.3 mph 23.0 mph N/A   Clear
5:55 PM 62.2 °F - 36.1 °F 38% 29.97 in 10.0 mi SE 11.5 mph - N/A   Clear
6:15 PM 60.4 °F - 36.7 °F 41% 29.97 in 10.0 mi SE 10.4 mph - N/A   Clear
6:35 PM 58.8 °F - 37.2 °F 45% 29.97 in 10.0 mi SE 8.1 mph - N/A   Clear
6:55 PM 57.4 °F - 37.0 °F 47% 29.97 in 10.0 mi SE 6.9 mph - N/A   Clear
7:15 PM 55.8 °F - 37.6 °F 51% 29.97 in 10.0 mi SE 8.1 mph - N/A   Clear
7:35 PM 53.8 °F - 38.7 °F 57% 29.97 in 10.0 mi ESE 6.9 mph - N/A   Clear
7:55 PM 51.6 °F - 39.2 °F 63% 29.98 in 10.0 mi ESE 8.1 mph - N/A   Clear
8:15 PM 51.3 °F - 39.4 °F 64% 29.98 in 10.0 mi ESE 6.9 mph - N/A   Clear
8:35 PM 50.0 °F - 39.2 °F 66% 29.98 in 10.0 mi ESE 4.6 mph - N/A   Clear
8:55 PM 49.1 °F - 39.4 °F 69% 29.98 in 10.0 mi ESE 8.1 mph - N/A   Clear
9:15 PM 48.7 °F - 39.6 °F 71% 29.98 in 10.0 mi ESE 6.9 mph - N/A   Clear
9:35 PM 48.4 °F - 39.6 °F 72% 29.98 in 10.0 mi ESE 6.9 mph - N/A   Clear
9:55 PM 48.4 °F - 39.6 °F 72% 29.99 in 10.0 mi ESE 6.9 mph - N/A   Clear
10:15 PM 48.2 °F - 39.6 °F 72% 29.99 in 10.0 mi ESE 5.8 mph - N/A   Clear
10:35 PM 48.4 °F - 39.7 °F 72% 29.99 in 10.0 mi ESE 6.9 mph - N/A   Clear
10:55 PM 48.2 °F - 40.1 °F 74% 29.99 in 10.0 mi East 6.9 mph - N/A   Clear
11:15 PM 47.5 °F - 39.7 °F 75% 29.99 in 10.0 mi East 6.9 mph - N/A   Clear
11:35 PM 46.8 °F - 39.6 °F 76% 30.00 in 10.0 mi East 4.6 mph - N/A   Clear
11:55 PM 46.8 °F - 39.6 °F 76% 30.00 in 10.0 mi ESE 5.8 mph - N/A   Clear